O3B FM7
Last updated on Wed Jun 24 2026 00:03:25 GMT+0000 (Coordinated Universal Time)
1 40080U 14038B 26173.24909309 -.00000023 00000+0 00000+0 0 9997
2 40080 0.0468 344.7671 0003775 79.1532 296.1168 5.00115685218132
Next 0 passes for location: London (51.5072 / 0.1276)
No passes found over London.